Change the Weather History Date:

Friday, January 11, 2013

  Actual Average Record
Temperature  
Mean Temperature 77 °F -  
Max Temperature 88 °F 58 °F 88 °F (2013)
Min Temperature 66 °F 43 °F 32 °F (2004)
Cooling Degree Days 12    
Growing Degree Days 27 (Base 50)    
Moisture  
Dew Point 65 °F    
Average Humidity 69    
Maximum Humidity 81    
Minimum Humidity 53    
Precipitation  
Precipitation 1.74 in - - ()
Sea Level Pressure  
Sea Level Pressure 30.02 in    
Wind  
Wind Speed 2 mph (SE)    
Max Wind Speed 8 mph    
Max Gust Speed -    
Averages and records for this station are not official NWS values.
T = Trace of Precipitation, MM = Missing Value Source: NWS Daily Summary

Daily Weather History Graph

Daily Weather History Graph

Search for Another Location

Airport or City:

Trip Planner

Search our weather history database for the weather conditions in past years. The results will help you decide how hot, cold, wet, or windy it might be!

Date:

Astronomy

Jan. 11, 2013 Rise Set
Actual Time 7:02 AM CST 5:26 PM CST
Civil Twilight 6:36 AM CST 5:52 PM CST
Nautical Twilight 6:06 AM CST 6:21 PM CST
Astronomical Twilight 5:38 AM CST 6:50 PM CST
Moon 6:38 AM CST (1/11) 5:40 PM CST (1/11)
Length of Visible Light 11h 16m
Length of Day
10h 24m
Waning Crescent, 0% of the Moon is Illuminated
Jan 11
Waning Crescent
Jan 11
New
Jan 18
First Quarter
Jan 26
Full
Feb 3
Last Quarter

Hourly Weather History & Observations

Time (CST) Temp. Heat Index Dew Point Humidity Pressure Visibility Wind Dir Wind Speed Gust Speed Precip Events Conditions
12:53 AM 73.0 °F - 61.0 °F 66% 30.06 in - SW 3.5 mph - N/A   Unknown
1:53 AM 68.0 °F - 57.9 °F 70% 30.06 in - Calm Calm - N/A   Unknown
2:53 AM 66.0 °F - 60.1 °F 81% 30.06 in - Calm Calm - N/A   Unknown
3:53 AM 69.1 °F - 62.1 °F 78% 30.05 in - Calm Calm - 0.04 in   Unknown
4:53 AM 72.0 °F - 62.1 °F 71% 30.04 in - Calm Calm - 0.06 in   Unknown
5:53 AM 73.0 °F - 62.1 °F 68% 30.04 in - Calm Calm - 0.04 in   Unknown
6:53 AM 71.1 °F - 62.1 °F 73% 30.04 in - Calm Calm - 0.13 in   Unknown
7:53 AM 70.0 °F - 63.0 °F 78% 30.06 in - Calm Calm - 0.26 in   Unknown
8:53 AM 75.9 °F - 63.0 °F 64% 30.08 in - Calm Calm - 0.02 in   Unknown
9:53 AM 73.9 °F - 63.0 °F 68% 30.07 in - Variable 3.5 mph - 0.08 in   Unknown
10:53 AM 75.0 °F - 64.0 °F 69% 30.06 in - Variable 3.5 mph - 0.02 in   Unknown
11:53 AM 73.9 °F - 64.9 °F 73% 30.03 in - Calm Calm - 0.03 in   Unknown
12:53 PM 73.9 °F - 66.9 °F 79% 29.99 in - East 3.5 mph - 0.08 in   Unknown
1:53 PM 75.9 °F - 66.9 °F 74% 29.98 in - Calm Calm - N/A   Unknown
2:53 PM 88.0 °F 92.1 °F 69.1 °F 53% 29.97 in - ESE 3.5 mph - N/A   Unknown
3:53 PM 75.9 °F - 68.0 °F 76% 29.99 in - Variable 3.5 mph - 0.08 in   Unknown
4:53 PM 75.9 °F - 66.0 °F 71% 29.98 in - Variable 4.6 mph - 0.80 in   Unknown
5:53 PM 81.0 °F 83.8 °F 68.0 °F 65% 29.99 in - Variable 5.8 mph - 0.10 in   Unknown
6:53 PM 80.1 °F 82.7 °F 68.0 °F 67% 29.99 in - SSE 8.1 mph - N/A   Unknown
7:53 PM 80.1 °F 82.3 °F 66.9 °F 64% 30.00 in - SSE 6.9 mph - N/A   Unknown
8:53 PM 81.0 °F 83.0 °F 66.0 °F 60% 30.00 in - SE 5.8 mph - N/A   Unknown
9:53 PM 80.1 °F 82.1 °F 66.0 °F 62% 30.01 in - SSE 6.9 mph - N/A   Unknown
10:53 PM 79.0 °F - 66.9 °F 66% 30.00 in - SSE 6.9 mph - N/A   Unknown
11:53 PM 79.0 °F - 66.0 °F 64% 29.99 in - SSE 6.9 mph - N/A   Unknown